TimeEST,TemperatureF,Dew PointF,Humidity,Sea Level PressureIn,VisibilityMPH,Wind Direction,Wind SpeedMPH,Gust SpeedMPH,PrecipitationIn,Events,Conditions,WindDirDegrees,DateUTC
12:52 AM,17.1,10.9,77,29.91,10.0,NW,3.5,-,N/A,,Overcast,320,2006-01-01 05:52:00
1:45 AM,15.8,10.4,79,29.85,2.5,NNW,4.6,-,0.00,Snow,Light Snow,340,2006-01-01 06:45:00
1:52 AM,16.0,10.9,81,29.93,4.0,NNW,3.5,-,0.00,Snow,Light Snow,330,2006-01-01 06:52:00
2:52 AM,16.0,10.0,77,29.95,9.0,Calm,Calm,-,0.00,Snow,Light Snow,0,2006-01-01 07:52:00
3:52 AM,15.1,10.0,80,29.95,10.0,NNW,5.8,-,0.00,,Overcast,340,2006-01-01 08:52:00
4:04 AM,15.8,10.4,79,29.89,10.0,NNW,4.6,-,N/A,,Overcast,330,2006-01-01 09:04:00
4:52 AM,15.1,9.0,77,29.98,10.0,Calm,Calm,-,N/A,,Overcast,0,2006-01-01 09:52:00
5:52 AM,15.1,9.0,77,30.00,10.0,NNW,3.5,-,N/A,,Overcast,340,2006-01-01 10:52:00
6:52 AM,14.0,9.0,80,30.01,10.0,NNW,3.5,-,N/A,,Overcast,340,2006-01-01 11:52:00
7:52 AM,15.1,9.0,77,30.03,10.0,NNW,3.5,-,N/A,,Overcast,340,2006-01-01 12:52:00
8:52 AM,15.1,10.0,80,30.06,10.0,NNW,4.6,-,N/A,,Overcast,340,2006-01-01 13:52:00
9:52 AM,16.0,10.0,77,30.07,10.0,Calm,Calm,-,N/A,,Overcast,0,2006-01-01 14:52:00
10:34 AM,17.6,10.4,73,29.99,7.0,North,3.5,-,N/A,,Overcast,350,2006-01-01 15:34:00
10:52 AM,17.1,12.0,81,30.06,8.0,NW,3.5,-,N/A,,Overcast,320,2006-01-01 15:52:00
11:19 AM,17.6,12.2,79,29.99,10.0,North,4.6,-,N/A,,Overcast,350,2006-01-01 16:19:00
11:45 AM,17.6,12.2,79,29.99,10.0,Calm,Calm,-,N/A,,Overcast,0,2006-01-01 16:45:00
11:52 AM,18.0,12.0,78,30.06,10.0,Calm,Calm,-,N/A,,Overcast,0,2006-01-01 16:52:00
12:06 PM,17.6,12.2,79,29.99,10.0,Calm,Calm,-,N/A,,Overcast,0,2006-01-01 17:06:00
12:52 PM,19.0,12.9,77,30.05,10.0,Calm,Calm,-,N/A,,Overcast,0,2006-01-01 17:52:00
1:52 PM,19.9,12.9,74,30.05,10.0,Calm,Calm,-,N/A,,Overcast,0,2006-01-01 18:52:00
2:02 PM,19.4,12.2,74,29.99,10.0,Calm,Calm,-,N/A,,Overcast,0,2006-01-01 19:02:00
2:39 PM,19.4,14.0,80,30.01,10.0,West,4.6,-,N/A,,Overcast,280,2006-01-01 19:39:00
2:52 PM,19.9,14.0,78,30.09,10.0,Calm,Calm,-,N/A,,Overcast,0,2006-01-01 19:52:00
3:52 PM,19.9,15.1,81,30.09,10.0,Calm,Calm,-,N/A,,Overcast,0,2006-01-01 20:52:00
4:52 PM,19.9,15.1,81,30.11,10.0,Calm,Calm,-,N/A,,Overcast,0,2006-01-01 21:52:00
5:52 PM,19.9,15.1,81,30.12,10.0,Calm,Calm,-,N/A,,Overcast,0,2006-01-01 22:52:00
6:52 PM,19.9,16.0,85,30.16,10.0,Calm,Calm,-,N/A,,Overcast,0,2006-01-01 23:52:00
7:52 PM,19.9,16.0,85,30.15,8.0,Calm,Calm,-,0.00,,Overcast,0,2006-01-02 00:52:00
8:41 PM,19.4,15.8,86,30.10,7.0,Calm,Calm,-,0.00,Snow,Light Snow,0,2006-01-02 01:41:00
8:52 PM,19.9,16.0,85,30.16,8.0,Calm,Calm,-,0.00,,Overcast,0,2006-01-02 01:52:00
9:36 PM,19.4,17.6,93,30.09,7.0,Calm,Calm,-,0.00,Snow,Light Snow,0,2006-01-02 02:36:00
9:52 PM,19.9,17.1,89,30.15,7.0,Calm,Calm,-,0.00,Snow,Light Snow,0,2006-01-02 02:52:00
10:52 PM,19.9,16.0,85,30.15,9.0,Calm,Calm,-,0.00,,Overcast,0,2006-01-02 03:52:00
11:52 PM,19.9,15.1,81,30.15,4.0,Calm,Calm,-,0.00,Snow,Light Snow,0,2006-01-02 04:52:00